{"data":{"norad_id":63722,"epoch":"2026-05-25T04:31:23.185920Z","epoch_age_seconds":58913,"freshness":"FRESH","line1":"1 63722U 25087AB  26145.18846280  .00007020  00000+0  24890-3 0  9991","line2":"2 63722  53.1574 224.1014 0000608 118.6951 241.4111 15.30202518 60913","mean_motion":15.30202518,"eccentricity":6.08e-5,"inclination_deg":53.1574,"raan_deg":224.1014,"arg_perigee_deg":118.6951,"mean_anomaly_deg":241.4111,"bstar":0.0002489,"rev_number":6091,"period_min":94.105190852914,"perigee_km":474.7908677868,"apogee_km":475.62423448422,"semimajor_km":6853.3445511355,"source":"CELESTRAK","updated_at":"2026-05-25T13:38:20.102318Z"}}